Tracking 19903 objects as of 16-Oct-2019
HD Live streaming from Space Station
objects crossing your sky now

CZ-4 DEB

Track CZ-4 DEB now!
10-day predictions


NORAD ID: 31131
Int'l Code: 2003-049D
Perigee: 701.6 km
Apogee: 896.8 km
Inclination: 98.7 °
Period: 100.7 minutes
Semi major axis: 7170 km
RCS: 0.0196 m2 (small)
Launch date: October 21, 2003
Source: People's Republic of China (PRC)
Launch site: Taiyaun Space Center, China (TSC)

Note: This is SATELLITE DEBRIS
aabbcc
Your satellite tracking list
Your tracking list is empty




NASA's NSSDC Master Catalog

Two Line Element Set (TLE):
1 31131U 03049D   19288.69021128 +.00000278 +00000-0 +11387-3 0  9992
2 31131 098.6941 241.4082 0136087 024.2008 096.9941 14.29899207650785
Source of the keplerian elements: AFSPC